SR3WXA Weather Reports


time (UTC)temp
C
wind
direction
speed
KPH
gust
KPH
rain 1hr
cm
rain 24hr
cm
rain mn
cm
humidity
%
barometer
mb
20260504120253 22 0 0.0 0.0 0.00 0.00 0.00 48 1013.1
20260504110151 21 0 0.0 0.0 0.00 0.00 0.00 50 1013.4
20260504100151 21 0 0.0 0.0 0.00 0.00 0.00 51 1013.8
20260504081703 20 0 0.0 0.0 0.00 0.00 0.00 56 1013.4
20260504081615 20 0 0.0 0.0 0.00 0.00 0.00 56 1013.4
20260504081210 20 0 0.0 0.0 0.00 0.00 0.00 55 1013.3
20260504081114 20 0 0.0 0.0 0.00 0.00 0.00 55 1013.3
20260504080646 20 0 0.0 0.0 0.00 0.00 0.00 54 1013.5
20260504080614 20 0 0.0 0.0 0.00 0.00 0.00 54 1013.5
20260504070349 18 0 0.0 0.0 0.00 0.00 0.00 55 1013.3
20260504050353 15 0 0.0 0.0 0.00 0.00 0.00 59 1012.9
20260504045851 15 0 0.0 0.0 0.00 0.00 0.00 60 1012.9
20260504045350 15 0 0.0 0.0 0.00 0.00 0.00 60 1012.8
20260504044850 15 0 0.0 0.0 0.00 0.00 0.00 60 1012.7
20260504044353 15 0 0.0 0.0 0.00 0.00 0.00 60 1012.6
20260504043850 14 0 0.0 0.0 0.00 0.00 0.00 61 1012.6
20260504042737 14 0 0.0 0.0 0.00 0.00 0.00 61 1012.6
20260504042704 14 0 0.0 0.0 0.00 0.00 0.00 61 1012.6
20260504042204 14 0 0.0 0.0 0.00 0.00 0.00 62 1012.6
20260504041703 14 0 0.0 0.0 0.00 0.00 0.00 62 1012.5
20260504041237 14 0 0.0 0.0 0.00 0.00 0.00 62 1012.5
20260504041203 14 0 0.0 0.0 0.00 0.00 0.00 62 1012.5
20260504040747 13 0 0.0 0.0 0.00 0.00 0.00 62 1012.4
20260504040703 13 0 0.0 0.0 0.00 0.00 0.00 62 1012.4
20260504040235 13 0 0.0 0.0 0.00 0.00 0.00 62 1012.3
20260504040203 13 0 0.0 0.0 0.00 0.00 0.00 62 1012.3
20260504035742 13 0 0.0 0.0 0.00 0.00 0.00 62 1012.4
20260504035703 13 0 0.0 0.0 0.00 0.00 0.00 62 1012.4
20260504035203 14 0 0.0 0.0 0.00 0.00 0.00 61 1012.3
20260504034738 14 0 0.0 0.0 0.00 0.00 0.00 60 1012.3
20260504034703 14 0 0.0 0.0 0.00 0.00 0.00 60 1012.3
20260504034203 14 0 0.0 0.0 0.00 0.00 0.00 60 1012.3
20260504033149 14 0 0.0 0.0 0.00 0.00 0.00 60 1012.2
20260504032651 14 0 0.0 0.0 0.00 0.00 0.00 59 1012.2
20260504032229 14 0 0.0 0.0 0.00 0.00 0.00 59 1012.2
20260504032149 14 0 0.0 0.0 0.00 0.00 0.00 59 1012.2
20260504031722 15 0 0.0 0.0 0.00 0.00 0.00 58 1012.2
20260504031649 15 0 0.0 0.0 0.00 0.00 0.00 58 1012.2
20260504031225 15 0 0.0 0.0 0.00 0.00 0.00 58 1012.1
20260504031149 15 0 0.0 0.0 0.00 0.00 0.00 58 1012.1
20260504030733 15 0 0.0 0.0 0.00 0.00 0.00 57 1012.2
20260504030651 15 0 0.0 0.0 0.00 0.00 0.00 57 1012.2
20260504030149 15 0 0.0 0.0 0.00 0.00 0.00 57 1012.1
20260504025649 15 0 0.0 0.0 0.00 0.00 0.00 57 1012.1
20260504025221 15 0 0.0 0.0 0.00 0.00 0.00 57 1012.2
20260504025149 15 0 0.0 0.0 0.00 0.00 0.00 57 1012.2
20260504024205 15 0 0.0 0.0 0.00 0.00 0.00 56 1012.2
20260504024116 15 0 0.0 0.0 0.00 0.00 0.00 56 1012.2
20260504023653 15 0 0.0 0.0 0.00 0.00 0.00 56 1012.2
20260504023616 15 0 0.0 0.0 0.00 0.00 0.00 56 1012.2
20260504023353 15 0 0.0 0.0 0.00 0.00 0.00 55 1012.2
20260504023148 15 0 0.0 0.0 0.00 0.00 0.00 55 1012.2
20260504023116 15 0 0.0 0.0 0.00 0.00 0.00 55 1012.2
20260504022617 15 0 0.0 0.0 0.00 0.00 0.00 55 1012.2
20260504022116 15 0 0.0 0.0 0.00 0.00 0.00 54 1012.2
20260504021616 16 0 0.0 0.0 0.00 0.00 0.00 54 1012.2
20260504021117 16 0 0.0 0.0 0.00 0.00 0.00 54 1012.2
20260504020647 16 0 0.0 0.0 0.00 0.00 0.00 54 1012.3
20260504020616 16 0 0.0 0.0 0.00 0.00 0.00 54 1012.3
20260504020120 16 0 0.0 0.0 0.00 0.00 0.00 54 1012.3
20260504015647 16 0 0.0 0.0 0.00 0.00 0.00 54 1012.3
20260504015616 16 0 0.0 0.0 0.00 0.00 0.00 54 1012.3
20260504015116 16 0 0.0 0.0 0.00 0.00 0.00 53 1012.3
20260504014618 16 0 0.0 0.0 0.00 0.00 0.00 53 1012.3
20260504014149 16 0 0.0 0.0 0.00 0.00 0.00 53 1012.4
20260504014116 16 0 0.0 0.0 0.00 0.00 0.00 53 1012.4
20260504013618 16 0 0.0 0.0 0.00 0.00 0.00 53 1012.4
20260504013202 16 0 0.0 0.0 0.00 0.00 0.00 52 1012.3
20260504013116 16 0 0.0 0.0 0.00 0.00 0.00 52 1012.3
20260504012616 16 0 0.0 0.0 0.00 0.00 0.00 52 1012.3
20260504012147 16 0 0.0 0.0 0.00 0.00 0.00 51 1012.2
20260504012116 16 0 0.0 0.0 0.00 0.00 0.00 51 1012.2
20260504011616 16 0 0.0 0.0 0.00 0.00 0.00 51 1012.2
20260504010616 17 0 0.0 0.0 0.00 0.00 0.00 50 1012.2
20260504010157 17 0 0.0 0.0 0.00 0.00 0.00 50 1012.1
20260504010118 17 0 0.0 0.0 0.00 0.00 0.00 50 1012.1
20260504005616 17 0 0.0 0.0 0.00 0.00 0.00 49 1012.1
20260504005101 17 0 0.0 0.0 0.00 0.00 0.00 49 1012.0
20260504004636 17 0 0.0 0.0 0.00 0.00 0.00 49 1012.1
20260504004601 17 0 0.0 0.0 0.00 0.00 0.00 49 1012.1
20260504004102 17 0 0.0 0.0 0.00 0.00 0.00 48 1012.0
20260504003134 17 0 0.0 0.0 0.00 0.00 0.00 48 1012.0
20260504003101 17 0 0.0 0.0 0.00 0.00 0.00 48 1012.0
20260504002633 17 0 0.0 0.0 0.00 0.00 0.00 47 1012.0
20260504002601 17 0 0.0 0.0 0.00 0.00 0.00 47 1012.0
20260504002134 18 0 0.0 0.0 0.00 0.00 0.00 47 1012.0
20260504002101 18 0 0.0 0.0 0.00 0.00 0.00 47 1012.0
20260504001636 18 0 0.0 0.0 0.00 0.00 0.00 46 1012.0
20260504001601 18 0 0.0 0.0 0.00 0.00 0.00 46 1012.0
20260504001101 18 0 0.0 0.0 0.00 0.00 0.00 46 1012.0
20260504000634 18 0 0.0 0.0 0.00 0.00 0.00 46 1012.0
20260504000603 18 0 0.0 0.0 0.00 0.00 0.00 46 1012.0
20260504000133 18 0 0.0 0.0 0.00 0.00 0.00 46 1012.0
20260503235740 18 0 0.0 0.0 0.00 0.00 0.00 46 1012.0
20260503235601 18 0 0.0 0.0 0.00 0.00 0.00 46 1012.0
20260503235211 18 0 0.0 0.0 0.00 0.00 0.00 45 1012.0
20260503235132 18 0 0.0 0.0 0.00 0.00 0.00 46 1012.0
20260503235101 18 0 0.0 0.0 0.00 0.00 0.00 46 1012.0
20260503234601 18 0 0.0 0.0 0.00 0.00 0.00 45 1012.0
20260503234101 18 0 0.0 0.0 0.00 0.00 0.00 45 1012.0
20260503233102 18 0 0.0 0.0 0.00 0.00 0.00 45 1012.0
20260503232636 18 0 0.0 0.0 0.00 0.00 0.00 45 1012.0
20260503232601 18 0 0.0 0.0 0.00 0.00 0.00 45 1012.0
20260503232132 18 0 0.0 0.0 0.00 0.00 0.00 45 1012.1
20260503232101 18 0 0.0 0.0 0.00 0.00 0.00 45 1012.1
20260503231101 18 0 0.0 0.0 0.00 0.00 0.00 45 1012.1
20260503230634 18 0 0.0 0.0 0.00 0.00 0.00 45 1012.1
20260503230601 18 0 0.0 0.0 0.00 0.00 0.00 45 1012.1
20260503225832 19 0 0.0 0.0 0.00 0.00 0.00 45 1012.0
20260503225728 19 0 0.0 0.0 0.00 0.00 0.00 45 1012.0
20260503225228 19 0 0.0 0.0 0.00 0.00 0.00 45 1012.0
20260503224806 19 0 0.0 0.0 0.00 0.00 0.00 45 1012.0
20260503224728 19 0 0.0 0.0 0.00 0.00 0.00 45 1012.0
20260503224305 19 0 0.0 0.0 0.00 0.00 0.00 45 1012.0
20260503224228 19 0 0.0 0.0 0.00 0.00 0.00 45 1012.0
20260503223801 19 0 0.0 0.0 0.00 0.00 0.00 45 1012.0
20260503223728 19 0 0.0 0.0 0.00 0.00 0.00 45 1012.0
20260503223318 18 0 0.0 0.0 0.00 0.00 0.00 45 1012.0
20260503223228 18 0 0.0 0.0 0.00 0.00 0.00 45 1012.0
20260503222830 18 0 0.0 0.0 0.00 0.00 0.00 45 1012.0
20260503222728 18 0 0.0 0.0 0.00 0.00 0.00 45 1012.0
20260503222300 18 0 0.0 0.0 0.00 0.00 0.00 45 1012.0
20260503222228 18 0 0.0 0.0 0.00 0.00 0.00 45 1012.0
20260503221728 18 0 0.0 0.0 0.00 0.00 0.00 45 1012.0
20260503221228 18 0 0.0 0.0 0.00 0.00 0.00 45 1012.1
20260503220813 19 0 0.0 0.0 0.00 0.00 0.00 45 1012.1
20260503220728 19 0 0.0 0.0 0.00 0.00 0.00 45 1012.1
20260503220259 19 0 0.0 0.0 0.00 0.00 0.00 44 1012.1
20260503220228 19 0 0.0 0.0 0.00 0.00 0.00 44 1012.1
20260503215800 19 0 0.0 0.0 0.00 0.00 0.00 44 1012.1
20260503215729 19 0 0.0 0.0 0.00 0.00 0.00 44 1012.1
20260503215228 19 0 0.0 0.0 0.00 0.00 0.00 44 1012.1
20260503214808 19 0 0.0 0.0 0.00 0.00 0.00 44 1012.2
20260503214728 19 0 0.0 0.0 0.00 0.00 0.00 44 1012.2
20260503214325 19 0 0.0 0.0 0.00 0.00 0.00 43 1012.2
20260503214228 19 0 0.0 0.0 0.00 0.00 0.00 43 1012.2
20260503213835 19 0 0.0 0.0 0.00 0.00 0.00 43 1012.1
20260503213759 19 0 0.0 0.0 0.00 0.00 0.00 43 1012.1
20260503213728 19 0 0.0 0.0 0.00 0.00 0.00 43 1012.1
20260503213301 19 0 0.0 0.0 0.00 0.00 0.00 43 1012.2
20260503213228 19 0 0.0 0.0 0.00 0.00 0.00 43 1012.2
20260503212728 19 0 0.0 0.0 0.00 0.00 0.00 43 1012.2
20260503212323 20 0 0.0 0.0 0.00 0.00 0.00 42 1012.2
20260503212228 20 0 0.0 0.0 0.00 0.00 0.00 42 1012.2
20260503211804 20 0 0.0 0.0 0.00 0.00 0.00 42 1012.2
20260503211728 20 0 0.0 0.0 0.00 0.00 0.00 42 1012.2
20260503211259 20 0 0.0 0.0 0.00 0.00 0.00 42 1012.2
20260503211228 20 0 0.0 0.0 0.00 0.00 0.00 42 1012.2
20260503210807 20 0 0.0 0.0 0.00 0.00 0.00 41 1012.2
20260503210728 20 0 0.0 0.0 0.00 0.00 0.00 41 1012.2
20260503205914 20 0 0.0 0.0 0.00 0.00 0.00 41 1012.2
20260503205843 20 0 0.0 0.0 0.00 0.00 0.00 41 1012.2
20260503205413 20 0 0.0 0.0 0.00 0.00 0.00 40 1012.3
20260503205342 20 0 0.0 0.0 0.00 0.00 0.00 40 1012.3
20260503204342 20 0 0.0 0.0 0.00 0.00 0.00 40 1012.3
20260503203916 20 0 0.0 0.0 0.00 0.00 0.00 39 1012.3
20260503203843 20 0 0.0 0.0 0.00 0.00 0.00 39 1012.3
20260503203415 20 0 0.0 0.0 0.00 0.00 0.00 39 1012.2
20260503203342 20 0 0.0 0.0 0.00 0.00 0.00 39 1012.2
20260503202917 20 0 0.0 0.0 0.00 0.00 0.00 38 1012.3
20260503202843 20 0 0.0 0.0 0.00 0.00 0.00 38 1012.3
20260503202342 20 0 0.0 0.0 0.00 0.00 0.00 38 1012.3
20260503201804 21 0 0.0 0.0 0.00 0.00 0.00 37 1012.3
20260503201720 21 0 0.0 0.0 0.00 0.00 0.00 37 1012.3
20260503201251 21 0 0.0 0.0 0.00 0.00 0.00 37 1012.3
20260503201220 21 0 0.0 0.0 0.00 0.00 0.00 37 1012.3
20260503200753 21 0 0.0 0.0 0.00 0.00 0.00 37 1012.4
20260503200720 21 0 0.0 0.0 0.00 0.00 0.00 37 1012.4
20260503200220 21 0 0.0 0.0 0.00 0.00 0.00 36 1012.4
20260503195820 21 0 0.0 0.0 0.00 0.00 0.00 36 1012.4
20260503195720 21 0 0.0 0.0 0.00 0.00 0.00 36 1012.4
20260503195220 21 0 0.0 0.0 0.00 0.00 0.00 35 1012.4
20260503194756 21 0 0.0 0.0 0.00 0.00 0.00 35 1012.4
20260503194720 21 0 0.0 0.0 0.00 0.00 0.00 35 1012.4
20260503194256 21 0 0.0 0.0 0.00 0.00 0.00 35 1012.4
20260503194220 21 0 0.0 0.0 0.00 0.00 0.00 35 1012.4
20260503193819 22 0 0.0 0.0 0.00 0.00 0.00 34 1012.4
20260503193720 22 0 0.0 0.0 0.00 0.00 0.00 34 1012.4
20260503193220 22 0 0.0 0.0 0.00 0.00 0.00 34 1012.4
20260503192722 22 0 0.0 0.0 0.00 0.00 0.00 34 1012.4
20260503192643 22 0 0.0 0.0 0.00 0.00 0.00 34 1012.4
20260503192227 22 0 0.0 0.0 0.00 0.00 0.00 33 1012.5
20260503192143 22 0 0.0 0.0 0.00 0.00 0.00 33 1012.5
20260503191720 22 0 0.0 0.0 0.00 0.00 0.00 33 1012.4
20260503191643 22 0 0.0 0.0 0.00 0.00 0.00 33 1012.4
20260503191219 22 0 0.0 0.0 0.00 0.00 0.00 33 1012.4
20260503191144 22 0 0.0 0.0 0.00 0.00 0.00 33 1012.4
20260503190721 22 0 0.0 0.0 0.00 0.00 0.00 32 1012.4
20260503190644 22 0 0.0 0.0 0.00 0.00 0.00 32 1012.4
20260503190143 22 0 0.0 0.0 0.00 0.00 0.00 32 1012.3
20260503185720 23 0 0.0 0.0 0.00 0.00 0.00 32 1012.4
20260503185643 23 0 0.0 0.0 0.00 0.00 0.00 32 1012.4
20260503185225 23 0 0.0 0.0 0.00 0.00 0.00 31 1012.4
20260503185143 23 0 0.0 0.0 0.00 0.00 0.00 31 1012.4
20260503184719 23 0 0.0 0.0 0.00 0.00 0.00 31 1012.3
20260503184644 23 0 0.0 0.0 0.00 0.00 0.00 31 1012.3
20260503184215 23 0 0.0 0.0 0.00 0.00 0.00 31 1012.3
20260503184143 23 0 0.0 0.0 0.00 0.00 0.00 31 1012.3
20260503183718 23 0 0.0 0.0 0.00 0.00 0.00 30 1012.3
20260503183643 23 0 0.0 0.0 0.00 0.00 0.00 30 1012.3
20260503183143 23 0 0.0 0.0 0.00 0.00 0.00 30 1012.2
20260503182717 23 0 0.0 0.0 0.00 0.00 0.00 30 1012.1
20260503182643 23 0 0.0 0.0 0.00 0.00 0.00 30 1012.1
20260503182214 24 0 0.0 0.0 0.00 0.00 0.00 29 1012.1
20260503182143 24 0 0.0 0.0 0.00 0.00 0.00 29 1012.1
20260503181643 24 0 0.0 0.0 0.00 0.00 0.00 29 1012.1
20260503181221 24 0 0.0 0.0 0.00 0.00 0.00 28 1012.1
20260503181144 24 0 0.0 0.0 0.00 0.00 0.00 28 1012.1
20260503180715 25 0 0.0 0.0 0.00 0.00 0.00 28 1012.0
20260503180643 25 0 0.0 0.0 0.00 0.00 0.00 28 1012.0
20260503180215 25 0 0.0 0.0 0.00 0.00 0.00 27 1012.0
20260503180143 25 0 0.0 0.0 0.00 0.00 0.00 27 1012.0
20260503175643 25 0 0.0 0.0 0.00 0.00 0.00 27 1011.9
20260503175214 25 0 0.0 0.0 0.00 0.00 0.00 27 1011.9
20260503175143 25 0 0.0 0.0 0.00 0.00 0.00 27 1011.9
20260503174714 25 0 0.0 0.0 0.00 0.00 0.00 26 1011.9
20260503174643 25 0 0.0 0.0 0.00 0.00 0.00 26 1011.9
20260503174143 25 0 0.0 0.0 0.00 0.00 0.00 26 1011.8
20260503173728 25 0 0.0 0.0 0.00 0.00 0.00 26 1011.9
20260503173644 25 0 0.0 0.0 0.00 0.00 0.00 26 1011.9
20260503173218 25 0 0.0 0.0 0.00 0.00 0.00 26 1011.9
20260503173143 25 0 0.0 0.0 0.00 0.00 0.00 26 1011.9
20260503172717 25 0 0.0 0.0 0.00 0.00 0.00 25 1011.8
20260503172644 25 0 0.0 0.0 0.00 0.00 0.00 25 1011.8
20260503172143 25 0 0.0 0.0 0.00 0.00 0.00 25 1011.9
20260503171644 26 0 0.0 0.0 0.00 0.00 0.00 25 1011.8
20260503171232 26 0 0.0 0.0 0.00 0.00 0.00 24 1011.8
20260503171145 26 0 0.0 0.0 0.00 0.00 0.00 24 1011.8
20260503170714 26 0 0.0 0.0 0.00 0.00 0.00 24 1011.9
20260503170643 26 0 0.0 0.0 0.00 0.00 0.00 24 1011.9
20260503170214 26 0 0.0 0.0 0.00 0.00 0.00 25 1011.9
20260503170143 26 0 0.0 0.0 0.00 0.00 0.00 25 1011.9
20260503160105 27 0 0.0 0.0 0.00 0.00 0.00 25 1012.0
20260503150900 27 0 0.0 0.0 0.00 0.00 0.00 26 1012.4
20260503150731 27 0 0.0 0.0 0.00 0.00 0.00 26 1012.4
20260503150315 27 0 0.0 0.0 0.00 0.00 0.00 26 1012.4
20260503150233 27 0 0.0 0.0 0.00 0.00 0.00 26 1012.4
20260503131357 27 0 0.0 0.0 0.00 0.00 0.00 27 1013.8
20260503130928 27 0 0.0 0.0 0.00 0.00 0.00 27 1013.8
20260503130857 27 0 0.0 0.0 0.00 0.00 0.00 27 1013.8